FENGYUN 1C DEB, 29835

Orbit data source: Space-Track

FENGYUN 1C DEB, 29835 is space debris in SSO originally from a launch on Mon, 10 May 1999 UTC launched from the Taiyaun Space Center, China (TSC). Fengyun 1C debris stems from the Chinese weather satellite Fengyun-1C, which was intentionally destroyed by a Chinese anti-satellite missile in 2007. This event dramatically increased the amount of space debris, with thousands of trackable fragments posing hazards to satellites and human spaceflight. The Fengyun 1C debris cloud has become a focal point in discussions about space sustainability and the need for international regulations to prevent the creation of new debris.

Loading next visibility...
Identifier
29835, 1999-025ED
Orbit
SSO
Country
Flag of CNCN / PRC
Related business
Manufacturer
Unknown
Mission
Spacecraft
Bus & Motor
Unknown
Mass
Unknown
Launch date (UTC)
1999-05-10 (27 years ago)
Launch vehicle
Unknown
Launch site
Taiyaun Space Center, China (TSC)
Object type
Payload
Rocket body
Debris
Shape & HBR
Unknown shape, 0.1 m
Radar Cross Section
Medium (>0.1 m² and <1 m²)

Expand to show TLE details & history
Last TLE update: 19 hours ago

TLE from 19 hours ago
0 FENGYUN 1C DEB
1 29835U 99025ED  26207.32841640  .00000275  00000-0  82584-4 0  9992
2 29835  99.0577 354.6416 0167897  88.0321 335.4489 14.43550745 27479
Epoch: 2026-07-26T07:52Z
TLE epoch observation values (Epoch: 2026-07-26T07:52:55.176Z)
Latitude
61.41245°
Longitude
-84.5313°
Altitude
648.774 km
Speed
7.597 km/s
True Right ascension
22h 30m 54s
True Declination
61° 15' 56"
Sunlit
Object was in daylight at epoch
Visualization orbit readout
Latitude
Unknown
Longitude
Unknown
Altitude
Unknown
Speed
Unknown
Apparent Right ascension
Unknown
Apparent Declination
Unknown
Sunlit
N/A
Visualization observer readout
Local Sidereal Time
16:15:53
Azimuth
Unknown
Elevation
Unknown
Doppler factor
Unknown
Orbital elements
Apogee altitude
863.511 km
Perigee altitude
624.357 km
Semi-major axis
7,122.071 km
Eccentricity
0.01679
Inclination
99.0577°
RAAN
354.6416°
Arg. of periapsis
88.0321°
True anomaly
334.63397°
Mean anomaly
335.4489°
Eccentric anomaly
335.043°
Mean motion
3.61105 °/min
Orbital period
99.69 mins
BSTAR
0.000082584
Loading maneuver chart data...
Computing Atmospheric mass density...

Documentation

Showing up to 5 results
|